Tucson, AZ

5:44 PM MST on October 22, 2019 (GMT -0700)
Tucson International

Weather History for KTUS - August, 2019

Change the Weather History Date:

Friday, August 16, 2019

  Actual Average Record
Temperature  
Mean Temperature 92 °F 85 °F  
Max Temperature 105 °F 97 °F 108 °F (1992)
Min Temperature 79 °F 73 °F 60 °F (1938)
Degree Days  
Heating Degree Days 0 0  
Month to date heating degree days 0 0  
Since 1 June heating degree days 0 0  
Since 1 July heating degree days 0 0  
Cooling Degree Days 27 20  
Month to date cooling degree days 390 326  
Year to date cooling degree days 2167 2105  
Since 1 June cooling degree days 1795 1603  
Growing Degree Days 42 (Base 50)    
Moisture  
Dew Point 52 °F    
Average Humidity 26    
Maximum Humidity 45    
Minimum Humidity 7    
Precipitation  
Precipitation 0.00 in 0.07 in 0.91 in (1944)
Month to date precipitation 1.15 1.31  
Year to date precipitation 7.25 6.83  
Sea Level Pressure  
Sea Level Pressure 29.83 in    
Wind  
Wind Speed 8 mph (SSE)    
Max Wind Speed 20 mph    
Max Gust Speed 26 mph    
Visibility 10 miles    
Events Thunderstorm    
T = Trace of Precipitation, MM = Missing Value Source: NWS Daily Summary

Daily Weather History Graph

Daily Weather History Graph

Search for Another Location

Airport or City:

Astronomy

Aug. 16, 2019 Rise Set
Actual Time 5:48 AM MST 7:06 PM MST
Civil Twilight 5:22 AM MST 7:32 PM MST
Nautical Twilight 4:52 AM MST 8:03 PM MST
Astronomical Twilight 4:20 AM MST 8:35 PM MST
Moon 8:10 PM MST (8/16) 6:43 AM MST (8/16)
Length of Visible Light 14h 09m
Length of Day
13h 18m
Full, 99% of the Moon is Illuminated
Aug 16
Full
Aug 23
Last Quarter
Aug 30
New
Sep 5
First Quarter
Sep 13
Full

Hourly Weather History & Observations

Time (MST) Temp. Heat Index Dew Point Humidity Pressure Visibility Wind Dir Wind Speed Gust Speed Precip Events Conditions
12:53 AM 86.0 °F - 48.0 °F 27% 29.80 in 10.0 mi SSE 6.9 mph - N/A   Clear
1:53 AM 86.0 °F - 48.9 °F 28% 29.81 in 10.0 mi ESE 9.2 mph - N/A   Clear
2:53 AM 82.9 °F - 52.0 °F 34% 29.81 in 10.0 mi SSE 12.7 mph - N/A   Clear
3:53 AM 82.9 °F 81.8 °F 53.1 °F 36% 29.81 in 10.0 mi SE 12.7 mph - N/A   Clear
4:53 AM 82.0 °F 81.3 °F 54.0 °F 38% 29.83 in 10.0 mi South 9.2 mph - N/A   Clear
5:53 AM 80.1 °F 80.1 °F 55.0 °F 42% 29.86 in 10.0 mi East 4.6 mph - N/A   Clear
6:53 AM 82.0 °F 82.1 °F 59.0 °F 45% 29.87 in 10.0 mi SSE 11.5 mph - N/A   Clear
7:53 AM 86.0 °F 86.3 °F 62.1 °F 44% 29.88 in 10.0 mi South 6.9 mph - N/A   Clear
8:53 AM 91.0 °F 90.0 °F 57.9 °F 33% 29.88 in 10.0 mi SE 4.6 mph - N/A   Clear
9:53 AM 93.0 °F 91.7 °F 57.0 °F 30% 29.88 in 10.0 mi North - - N/A   Clear
9:55 AM 93.0 °F 91.7 °F 57.0 °F 30% 30.05 in 10.0 mi SE 3.5 mph - N/A   Clear
10:53 AM 96.1 °F 93.5 °F 53.1 °F 23% 29.87 in 10.0 mi Calm Calm - N/A   Clear
11:53 AM 97.0 °F - 51.1 °F 21% 29.85 in 10.0 mi Variable 4.6 mph - N/A   Clear
12:53 PM 99.0 °F - 48.9 °F 18% 29.82 in 10.0 mi Variable 3.5 mph - N/A   Clear
1:53 PM 102.0 °F - 46.0 °F 15% 29.78 in 10.0 mi Variable 4.6 mph - N/A   Clear
2:53 PM 104.0 °F - 41.0 °F 12% 29.75 in 10.0 mi NNW 9.2 mph - N/A   Clear
3:53 PM 102.0 °F - 44.1 °F 14% 29.73 in 10.0 mi East 4.6 mph - N/A   Mostly Cloudy
4:53 PM 102.0 °F - 44.1 °F 14% 29.72 in 10.0 mi Calm Calm - N/A   Clear
5:53 PM 100.0 °F - 45.0 °F 15% 29.71 in 10.0 mi WSW 11.5 mph - N/A   Clear
6:53 PM 96.1 °F - 48.9 °F 20% 29.74 in 10.0 mi WSW 9.2 mph 21.9 mph N/A   Clear
7:53 PM 91.9 °F 89.5 °F 53.1 °F 27% 29.76 in 10.0 mi SSW 10.4 mph - N/A   Partly Cloudy
8:53 PM 91.9 °F - 52.0 °F 26% 29.78 in 10.0 mi South 5.8 mph - N/A   Mostly Cloudy
9:53 PM 89.1 °F 87.3 °F 55.9 °F 32% 29.80 in 10.0 mi South 15.0 mph - N/A   Scattered Clouds
10:53 PM 88.0 °F 85.9 °F 54.0 °F 31% 29.80 in 10.0 mi SSW 9.2 mph - N/A   Mostly Cloudy
11:34 PM 88.0 °F 85.9 °F 54.0 °F 31% 29.99 in 10.0 mi SE 6.9 mph - N/A Thunderstorm Mostly Cloudy
11:49 PM 87.8 °F 85.7 °F 53.6 °F 31% 29.99 in 10.0 mi SE 9.2 mph - N/A   Partly Cloudy
11:53 PM 88.0 °F 85.7 °F 53.1 °F 30% 29.82 in 10.0 mi SSE 13.8 mph - N/A   Partly Cloudy